カタログに戻る

INTELSAT 33E DEB

LostGEO
NORAD 62002·DEBRIS· XX

打ち上げ Aug 24, 2016 から Guiana Space Centre

Loading…

TLE

古いSource: Space-Track

元期: Jan 21, 2025, 12:03 UTC

1 62002U 16053U   25021.50220385  .00000080  00000-0  00000-0 0  9998
2 62002   0.2494  97.1529 0026366 220.4475  42.1783  1.00292476   951

AllMySatでINTELSAT 33E DEBをリアルタイム追跡

Download on the App Store